TimePST,TemperatureF,Dew PointF,Humidity,Sea Level PressureIn,VisibilityMPH,Wind Direction,Wind SpeedMPH,Gust SpeedMPH,PrecipitationIn,Events,Conditions,WindDirDegrees,DateUTC
12:15 AM,33.8,28.4,81,30.54,8.0,Calm,Calm,-,N/A,,Clear,0,2013-02-14 08:15:00
12:35 AM,35.6,32.0,87,30.55,10.0,Calm,Calm,-,N/A,,Partly Cloudy,0,2013-02-14 08:35:00
12:55 AM,35.6,33.8,93,30.55,9.0,Calm,Calm,-,N/A,,Scattered Clouds,0,2013-02-14 08:55:00
1:15 AM,35.6,33.8,93,30.54,10.0,Calm,Calm,-,N/A,,Mostly Cloudy,0,2013-02-14 09:15:00
1:35 AM,37.4,33.8,87,30.55,10.0,SE,3.5,-,N/A,,Mostly Cloudy,130,2013-02-14 09:35:00
1:55 AM,35.6,33.8,93,30.55,10.0,Calm,Calm,-,N/A,,Mostly Cloudy,0,2013-02-14 09:55:00
2:15 AM,35.6,33.8,93,30.56,10.0,Calm,Calm,-,N/A,,Overcast,0,2013-02-14 10:15:00
2:35 AM,37.4,33.8,87,30.55,10.0,Calm,Calm,-,N/A,,Overcast,0,2013-02-14 10:35:00
2:55 AM,35.6,33.8,93,30.55,10.0,Calm,Calm,-,N/A,,Overcast,0,2013-02-14 10:55:00
3:15 AM,37.4,33.8,87,30.55,10.0,Calm,Calm,-,N/A,,Overcast,0,2013-02-14 11:15:00
3:35 AM,35.6,33.8,93,30.54,10.0,Calm,Calm,-,N/A,,Mostly Cloudy,0,2013-02-14 11:35:00
4:15 AM,35.6,32.0,87,30.54,10.0,Calm,Calm,-,N/A,,Clear,0,2013-02-14 12:15:00
4:35 AM,35.6,33.8,93,30.54,10.0,Calm,Calm,-,N/A,,Scattered Clouds,0,2013-02-14 12:35:00
4:55 AM,35.6,32.0,87,30.55,10.0,Calm,Calm,-,N/A,,Overcast,0,2013-02-14 12:55:00
5:15 AM,35.6,33.8,93,30.54,10.0,ESE,3.5,-,N/A,,Overcast,120,2013-02-14 13:15:00
5:35 AM,37.4,33.8,87,30.55,10.0,SE,4.6,-,N/A,,Overcast,130,2013-02-14 13:35:00
5:55 AM,37.4,35.6,93,30.55,10.0,SE,4.6,-,N/A,,Overcast,140,2013-02-14 13:55:00
6:15 AM,37.4,35.6,93,30.55,10.0,SE,3.5,-,N/A,,Overcast,130,2013-02-14 14:15:00
6:35 AM,37.4,35.6,93,30.55,10.0,South,3.5,-,N/A,,Overcast,170,2013-02-14 14:35:00
6:55 AM,37.4,35.6,93,30.55,10.0,Calm,Calm,-,N/A,,Overcast,0,2013-02-14 14:55:00
7:15 AM,39.2,35.6,87,30.54,10.0,SE,8.1,-,N/A,,Overcast,140,2013-02-14 15:15:00
7:35 AM,39.2,35.6,87,30.54,10.0,SSE,6.9,-,N/A,,Overcast,160,2013-02-14 15:35:00
7:55 AM,39.2,35.6,87,30.56,10.0,SE,3.5,-,N/A,,Overcast,130,2013-02-14 15:55:00
8:15 AM,39.2,35.6,87,30.57,10.0,East,3.5,-,N/A,,Overcast,100,2013-02-14 16:15:00
8:35 AM,39.2,35.6,87,30.57,7.0,SE,3.5,-,N/A,,Overcast,130,2013-02-14 16:35:00
8:55 AM,39.2,35.6,87,30.58,10.0,SE,5.8,-,N/A,,Overcast,140,2013-02-14 16:55:00
9:15 AM,39.2,35.6,87,30.57,9.0,SSE,4.6,-,N/A,,Overcast,160,2013-02-14 17:15:00
9:35 AM,39.2,37.4,93,30.57,9.0,SE,3.5,-,N/A,,Overcast,140,2013-02-14 17:35:00
9:55 AM,41.0,37.4,87,30.57,10.0,SE,5.8,-,N/A,,Overcast,130,2013-02-14 17:55:00
10:15 AM,41.0,37.4,87,30.57,10.0,SE,5.8,-,N/A,,Overcast,140,2013-02-14 18:15:00
10:35 AM,42.8,37.4,81,30.58,10.0,SSE,5.8,-,N/A,,Overcast,150,2013-02-14 18:35:00
10:55 AM,42.8,37.4,81,30.58,10.0,SE,3.5,-,N/A,,Overcast,140,2013-02-14 18:55:00
11:15 AM,42.8,37.4,81,30.58,10.0,Calm,Calm,-,N/A,,Overcast,0,2013-02-14 19:15:00
11:35 AM,42.8,37.4,81,30.58,10.0,SE,4.6,-,N/A,,Overcast,140,2013-02-14 19:35:00
11:55 AM,44.6,39.2,81,30.58,10.0,SE,6.9,-,N/A,,Overcast,140,2013-02-14 19:55:00
12:15 PM,44.6,39.2,81,30.57,10.0,SE,6.9,-,N/A,,Overcast,140,2013-02-14 20:15:00
12:35 PM,44.6,39.2,81,30.57,10.0,SE,8.1,-,N/A,,Overcast,130,2013-02-14 20:35:00
12:55 PM,44.6,39.2,81,30.57,10.0,SE,8.1,-,N/A,,Overcast,140,2013-02-14 20:55:00
1:15 PM,44.6,39.2,81,30.57,10.0,SE,6.9,-,N/A,,Overcast,140,2013-02-14 21:15:00
1:35 PM,44.6,41.0,87,30.57,5.0,SE,6.9,-,N/A,,Overcast,130,2013-02-14 21:35:00
1:55 PM,44.6,42.8,93,30.56,4.0,SE,6.9,-,N/A,,Overcast,130,2013-02-14 21:55:00
2:15 PM,44.6,42.8,93,30.56,3.0,SE,4.6,-,N/A,,Overcast,130,2013-02-14 22:15:00
2:35 PM,44.6,42.8,93,30.57,5.0,SE,3.5,-,N/A,,Overcast,130,2013-02-14 22:35:00
2:55 PM,44.6,42.8,93,30.57,3.0,SE,4.6,-,N/A,,Overcast,130,2013-02-14 22:55:00
3:15 PM,46.4,42.8,87,30.56,3.0,SE,3.5,-,N/A,,Overcast,140,2013-02-14 23:15:00
3:35 PM,46.4,42.8,87,30.56,6.0,Calm,Calm,-,N/A,,Overcast,0,2013-02-14 23:35:00
3:55 PM,46.4,42.8,87,30.55,10.0,Calm,Calm,-,N/A,,Overcast,0,2013-02-14 23:55:00
4:15 PM,46.4,42.8,87,30.55,10.0,Calm,Calm,-,N/A,,Overcast,0,2013-02-15 00:15:00
4:35 PM,46.4,42.8,87,30.55,10.0,Calm,Calm,-,N/A,,Overcast,0,2013-02-15 00:35:00
4:55 PM,46.4,42.8,87,30.55,10.0,Calm,Calm,-,N/A,,Overcast,0,2013-02-15 00:55:00
5:15 PM,46.4,42.8,87,30.55,10.0,Calm,Calm,-,N/A,,Overcast,0,2013-02-15 01:15:00
5:35 PM,46.4,42.8,87,30.55,10.0,Calm,Calm,-,N/A,,Overcast,0,2013-02-15 01:35:00
5:55 PM,46.4,41.0,81,30.54,10.0,Calm,Calm,-,N/A,,Overcast,0,2013-02-15 01:55:00
6:15 PM,44.6,41.0,87,30.54,10.0,Calm,Calm,-,N/A,,Overcast,0,2013-02-15 02:15:00
6:35 PM,44.6,41.0,87,30.54,10.0,Calm,Calm,-,N/A,,Overcast,0,2013-02-15 02:35:00
6:55 PM,42.8,39.2,87,30.54,10.0,Calm,Calm,-,N/A,,Overcast,0,2013-02-15 02:55:00
7:15 PM,42.8,39.2,87,30.54,9.0,Calm,Calm,-,N/A,,Mostly Cloudy,0,2013-02-15 03:15:00
7:35 PM,42.8,39.2,87,30.54,10.0,Calm,Calm,-,N/A,,Mostly Cloudy,0,2013-02-15 03:35:00
7:55 PM,42.8,39.2,87,30.54,10.0,Calm,Calm,-,N/A,,Overcast,0,2013-02-15 03:55:00
8:15 PM,42.8,39.2,87,30.54,9.0,Calm,Calm,-,N/A,,Overcast,0,2013-02-15 04:15:00
8:35 PM,42.8,41.0,93,30.54,10.0,Calm,Calm,-,N/A,,Overcast,0,2013-02-15 04:35:00
8:55 PM,44.6,42.8,93,30.55,8.0,Calm,Calm,-,N/A,,Overcast,0,2013-02-15 04:55:00
9:15 PM,44.6,42.8,93,30.55,9.0,Calm,Calm,-,N/A,,Overcast,0,2013-02-15 05:15:00
9:35 PM,44.6,42.8,93,30.55,10.0,Calm,Calm,-,N/A,,Overcast,0,2013-02-15 05:35:00
9:55 PM,44.6,42.8,93,30.55,5.0,Calm,Calm,-,N/A,,Overcast,0,2013-02-15 05:55:00
10:15 PM,44.6,41.0,87,30.54,10.0,Calm,Calm,-,N/A,,Overcast,0,2013-02-15 06:15:00
10:35 PM,44.6,41.0,87,30.55,9.0,NW,3.5,-,N/A,,Overcast,310,2013-02-15 06:35:00
10:55 PM,44.6,42.8,93,30.54,5.0,NW,3.5,-,N/A,,Overcast,320,2013-02-15 06:55:00
11:15 PM,44.6,42.8,93,30.54,5.0,NW,3.5,-,N/A,,Overcast,320,2013-02-15 07:15:00
11:35 PM,44.6,42.8,93,30.54,5.0,NW,3.5,-,N/A,,Overcast,310,2013-02-15 07:35:00
11:55 PM,44.6,42.8,93,30.53,6.0,Calm,Calm,-,N/A,,Overcast,0,2013-02-15 07:55:00